TimeCDT,TemperatureF,Dew PointF,Humidity,Sea Level PressureIn,VisibilityMPH,Wind Direction,Wind SpeedMPH,Gust SpeedMPH,PrecipitationIn,Events,Conditions,WindDirDegrees,DateUTC
12:53 AM,62.1,55.0,78,30.08,9.0,Calm,Calm,-,N/A,,Clear,0,2013-07-11 05:53:00
1:53 AM,59.0,55.0,87,30.09,8.0,Calm,Calm,-,N/A,,Clear,0,2013-07-11 06:53:00
2:53 AM,59.0,55.0,87,30.09,8.0,Calm,Calm,-,N/A,,Clear,0,2013-07-11 07:53:00
3:53 AM,57.0,53.1,87,30.10,8.0,Calm,Calm,-,N/A,,Clear,0,2013-07-11 08:53:00
4:53 AM,57.0,53.1,87,30.10,8.0,Calm,Calm,-,N/A,,Clear,0,2013-07-11 09:53:00
5:53 AM,55.0,52.0,89,30.12,7.0,Calm,Calm,-,N/A,,Clear,0,2013-07-11 10:53:00
6:53 AM,59.0,55.9,90,30.12,6.0,Calm,Calm,-,N/A,,Clear,0,2013-07-11 11:53:00
7:53 AM,66.0,59.0,78,30.13,6.0,Calm,Calm,-,N/A,,Haze,0,2013-07-11 12:53:00
8:53 AM,72.0,57.0,59,30.12,10.0,SSE,5.8,-,N/A,,Clear,160,2013-07-11 13:53:00
9:53 AM,75.0,55.0,50,30.12,10.0,SSE,6.9,-,N/A,,Clear,160,2013-07-11 14:53:00
10:53 AM,78.1,53.1,42,30.12,9.0,South,8.1,-,N/A,,Clear,170,2013-07-11 15:53:00
11:53 AM,80.1,52.0,38,30.12,10.0,SE,6.9,-,N/A,,Clear,140,2013-07-11 16:53:00
12:53 PM,81.0,52.0,36,30.10,10.0,SE,9.2,-,N/A,,Clear,140,2013-07-11 17:53:00
1:53 PM,82.0,54.0,38,30.08,10.0,ESE,9.2,-,N/A,,Clear,120,2013-07-11 18:53:00
2:53 PM,82.9,54.0,37,30.07,10.0,SSE,12.7,-,N/A,,Clear,160,2013-07-11 19:53:00
3:53 PM,82.9,54.0,37,30.07,10.0,South,16.1,19.6,N/A,,Clear,170,2013-07-11 20:53:00
4:53 PM,82.9,54.0,37,30.06,10.0,South,12.7,-,N/A,,Clear,170,2013-07-11 21:53:00
5:53 PM,82.0,54.0,38,30.05,10.0,SSE,15.0,21.9,N/A,,Clear,160,2013-07-11 22:53:00
6:53 PM,80.1,54.0,40,30.04,10.0,SSE,11.5,-,N/A,,Clear,160,2013-07-11 23:53:00
7:53 PM,77.0,53.1,43,30.03,10.0,SSE,11.5,-,N/A,,Clear,160,2013-07-12 00:53:00
8:53 PM,72.0,55.0,55,30.02,10.0,SSE,6.9,-,N/A,,Clear,150,2013-07-12 01:53:00
9:53 PM,70.0,55.9,61,30.03,10.0,SSE,10.4,-,N/A,,Clear,150,2013-07-12 02:53:00
10:53 PM,68.0,55.9,65,30.03,10.0,SSE,8.1,-,N/A,,Clear,150,2013-07-12 03:53:00
11:53 PM,66.0,55.9,70,30.04,10.0,South,9.2,-,N/A,,Clear,170,2013-07-12 04:53:00